Location: K�ln
(50.9455°N, 6.9544°E)
Time: 03:55:52
(UTC+01:00)

ISS - Pass Details

Date: 15 November 2017
Orbit: 402 x 407 km, 51.6° (Epoch: 21 November)

Event Time Altitude Azimuth Distance (km) Brightness Sun altitude
Exits shadow 04:55:21 18° 120° (ESE) 1,081 -1.1 -27.0°
Drops below altitude 10° 04:56:17 10° 117° (ESE) 1,453 -0.3 -26.9°
Sets 04:58:22 0° 115° (ESE) 2,311 1.0 -26.6°
